Location: Munkebjergskolens Observatorium
(55.3864°N, 10.3987°E)
Time: 22:06:01
(UTC+01:00)

DELTA 1 DEB - Pass Details

Date: 10 December 2023
Orbit: 783 x 826 km, 98.9° (Epoch: 04 March)

Event Time Altitude Azimuth Distance (km) Brightness Sun altitude
Rises 18:16:02 0° 177° (S) 3,301 ? -19.4°
Reaches altitude 10° 18:18:24 10° 182° (S) 2,382 ? -19.7°
Maximum altitude 18:23:32 53° 259° (W) 1,000 ? -20.4°
Drops below altitude 10° 18:28:47 10° 336° (NNW) 2,426 ? -21.2°
Sets 18:31:14 0° 342° (NNW) 3,369 ? -21.5°
